www.pogodaiklimat.ru

Погода и климат >> Архив погоды >> Малайзия >> Куантане


ПОГОДА в Куантане

  • Прогноз погоды в Куантане
  • Монитор погоды в Куантане

АРХИВ ПОГОДЫ в Куантане

Время (UTC), дата Ветер
(напр.,м/с)
 
Видим.   Явления Облачность Т
(С)
Тd
(С)
f
(%)
Тe
(С)
Тes
(С)
Комфортность P
(гПа)
Po
(гПа)
Тmin
(С)
Tmax
(С)
R
(мм)
R24
(мм)
S
(см)
09 10.07 ЮВ 3 16 км в посл. час гроза 8/3 600 м
[Cu med, cong Ac trans Ci sp]
+31.4 +24.4 66 +44 +46 опасность
перегрева
1008.5 1006.7
12 10.07 штиль 0 12 км мгла 9/3 720 м
[Sc Ac trans Ci sp]
+27.9 +24.5 82 +39 +39 очень
душно
1010.3 1008.5 +31.8 7
15 10.07 штиль 0 12 км мгла 8/3 720 м
[Sc Ac trans Ci sp]
+25.7 +24.0 90 +35 +35 очень
душно
1011.2 1009.4
18 10.07 штиль 0 12 км мгла 8/3 720 м
[Sc Ac trans Ci sp]
+25.3 +23.7 91 +34 +34 очень
душно
1011.4 1009.6
21 10.07 штиль 0 10 км мгла 8/3 720 м
[Sc Ac trans Ci sp]
+24.9 +23.7 93 +34 +34 очень
душно
1010.8 1009.0
00 11.07 ЮЗ 2 11 км в посл. час дождь 9/1 1000 м
[Sc Ac und Ci sp]
+26.2 +24.2 89 +36 +37 очень
душно
1012.7 1010.9 +24.7 7
03 11.07 Ю 1 15 км мгла 9/1 570 м
[Cu med, cong Ac trans Ci sp]
+29.0 +25.3 80 +42 +51 опасность
перегрева
1013.5 1011.7
06 11.07 ЮЗ 1 16 км мгла 9/3 570 м
[Cu med, cong Ac trans Ci sp]
+32.9 +25.1 64 +47 +56 опасность
перегрева
1011.4 1009.6
09 11.07 В 3 17 км мгла 9/3 500 м
[Cb cap Ac trans Ci sp]
+31.7 +25.5 70 +46 +48 опасность
перегрева
1009.6 1007.8
12 11.07 В 1 12 км мгла 8/1 720 м
[Sc Ac trans Ci sp]
+28.7 +25.2 81 +42 +42 опасность
перегрева
1011.2 1009.4 +29.4
15 11.07 штиль 0 12 км мгла 8/1 720 м
[Sc Ac trans Ci sp]
+26.4 +24.7 90 +37 +37 очень
душно
1013.1 1011.3
18 11.07 штиль 0 12 км мгла 8/1 720 м
[Sc Ac trans Ci fib]
+25.2 +24.0 93 +35 +35 очень
душно
1011.8 1010.0
21 11.07 штиль 0 12 км мгла 8/1 720 м
[Sc Ac trans Ci sp]
+25.0 +23.8 93 +34 +34 очень
душно
1010.8 1009.0
00 12.07 ЮЗ 2 12 км мгла 8/1 <50 м
[Cu hum Ac trans Ci sp]
+26.4 +24.3 88 +37 +37 очень
душно
1012.5 1010.7 +25.2
03 12.07 Ю 2 16 км мгла 9/3 570 м
[Cu med, cong Ac trans Ci sp]
+30.9 +24.7 70 +44 +50 опасность
перегрева
1013.2 1011.4
06 12.07 Ю 2 18 км мгла 9/4 500 м
[Cb cap Ac trans Ci sp]
+33.0 +24.8 62 +46 +53 опасность
перегрева
1011.2 1009.4
09 12.07 В 3 18 км мгла 8/3 570 м
[Cu med, cong Ac trans Ci sp]
+31.8 +25.4 69 +46 +48 опасность
перегрева
1009.2 1007.4
12 12.07 В 1 12 км мгла 9/1 720 м
[Sc Ac trans Ci sp]
+29.0 +25.3 80 +42 +42 опасность
перегрева
1010.7 1008.9 +34.1
15 12.07 штиль 0 10 км мгла 9/1 750 м
[Sc Ac trans Ci sp]
+27.4 +24.8 86 +39 +39 очень
душно
1012.9 1011.1
18 12.07 штиль 0 9000 м гроза без осадков 9/3 500 м
[Cb cap Ac trans Ci sp]
+26.8 +24.7 88 +38 +38 очень
душно
1012.2 1010.4
21 12.07 штиль 0 10 км в посл. час дождь {гроза} 9/3 720 м
[Sc diur, vesp Ac trans Ci sp]
+25.8 +24.6 93 +36 +36 очень
душно
1010.3 1008.5
00 13.07 штиль 0 13 км мгла 9/1 1000 м
[Sc diur, vesp Ac trans Ci sp]
+25.8 +24.2 91 +36 +37 очень
душно
1011.5 1009.7 +25.4 0.0
03 13.07 Ю 2 15 км мгла 8/3 540 м
[Cu med, cong Ac trans Ci sp]
+31.1 +24.8 69 +44 +51 опасность
перегрева
1012.4 1010.6
06 13.07 Ю 2 15 км мгла 9/4 570 м
[Cu med, cong Ac trans Ci sp]
+32.8 +25.3 65 +47 +54 опасность
перегрева
1010.0 1008.2
09 13.07 В 3 15 км мгла 9/4 500 м
[Cb cap Ac trans Ci sp]
+32.3 +26.1 70 +48 +50 опасность
перегрева
1008.0 1006.2
12 13.07 штиль 0 13 км гроза без осадков 9/4 500 м
[Cb cap Ac trans Ci sp]
+28.4 +24.8 81 +41 +41 опасность
перегрева
1010.0 1008.2 +33.9
15 13.07 штиль 0 12 км гроза, ливневой дождь 9/4 480 м
[Cb cap Ac trans Ci sp]
+24.4 +23.2 93 +33 +33 очень
душно
1012.0 1010.2
18 13.07 штиль 0 10 км мгла 9/3 210 м
[Sc Ac trans Ci sp]
+24.4 +22.9 91 +32 +32 очень
душно
1011.0 1009.2 7
21 13.07 штиль 0 12 км мгла 9/3 750 м
[Sc Ac lent Ci sp]
+24.1 +23.0 94 +32 +32 очень
душно
1009.6 1007.8
00 14.07 штиль 0 16 км мгла 9/1 1000 м
[Cu hum Ac trans Ci sp]
+24.6 +23.3 92 +33 +34 очень
душно
1010.9 1009.1 +23.7 7
03 14.07 Ю 2 17 км мгла 9/1 570 м
[Cu hum Ac trans Ci sp]
+30.6 +25.5 74 +45 +52 опасность
перегрева
1011.2 1009.4
06 14.07 штиль 0 10 км гроза, ливневой дождь 9/4 500 м
[Cb cap Ac trans Ci sp]
+28.9 +26.3 86 +44 +53 опасность
перегрева
1008.8 1007.0 5
09 14.07 Ю 1 14 км в посл. час гроза {дождь} 9/4 500 м
[Cb cap Ac trans Ci sp]
+32.3 +25.0 65 +46 +48 опасность
перегрева
1006.3 1004.5
12 14.07 В 1 7000 м гроза, ливневой дождь 9/4 480 м
[Cb cap Ac trans Ci sp]
+29.1 +26.1 84 +44 +44 опасность
перегрева
1009.0 1007.2 +32.7 0.0
15 14.07 СЗ 1 9000 м слаб. ливневой дождь, в посл. час гроза 9/3 720 м
[Sc Ac trans Ci sp]
+24.4 +23.3 94 +33 +33 очень
душно
1010.6 1008.8
18 14.07 штиль 0 9000 м слаб. дождь 9/4 480 м
[Cb cap Ac trans Ci sp]
+24.9 +23.4 91 +33 +33 очень
душно
1009.7 1007.9 20
21 14.07 ЮЗ 1 9000 м мгла 9/3 720 м
[Sc diur, vesp Ac trans Ci sp]
+24.2 +22.9 92 +32 +32 очень
душно
1008.8 1007.0
00 15.07 Ю 1 15 км мгла 9/1 1000 м
[Cu hum Ac trans Ci sp]
+24.2 +22.7 91 +32 +33 очень
душно
1009.8 1008.0 +23.7 25
03 15.07 ЮЗ 2 15 км мгла 9/1 600 м
[Cu hum Ac trans Cs]
+28.6 +24.7 79 +41 +49 опасность
перегрева
1010.8 1009.0
06 15.07 Ю 2 15 км мгла 9/4 570 м
[Cu hum Ac trans Ci sp]
+30.8 +25.5 73 +45 +52 опасность
перегрева
1008.0 1006.2
09 15.07 Ю 3 12 км мгла 9/4 500 м
[Cb cap Ac trans Ci sp]
+30.0 +25.4 76 +44 +45 опасность
перегрева
1007.1 1005.3
12 15.07 ЮВ 1 12 км мгла 9/3 720 м
[Sc Ac trans Ci sp]
+27.7 +25.1 86 +40 +40 очень
душно
1007.7 1005.9 +32.1
15 15.07 ЮВ 1 9000 м мгла 9/3 720 м
[Sc Ac trans Ci sp]
+26.7 +24.6 88 +38 +38 очень
душно
1009.6 1007.8
18 15.07 Ю 1 10 км зарница 9/4 500 м
[Cb cap Ac lent Ci sp]
+25.9 +24.1 90 +36 +36 очень
душно
1009.3 1007.5
21 15.07 Ю 2 7000 м зарница 9/4 210 м
[Cb cap Ac trans Ci sp]
+25.3 +23.7 91 +34 +34 очень
душно
1008.8 1007.0
00 16.07 ЮЗ 2 7000 м мгла 9/3 270 м
[Cb cap Ac trans Ci sp]
+25.6 +23.5 88 +35 +35 очень
душно
1009.6 1007.8 +24.2
03 16.07 Ю 3 12 км мгла 9/3 600 м
[Cu med, cong Ac trans Ci sp]
+28.5 +24.2 78 +40 +45 очень
душно
1010.8 1009.0
06 16.07 Ю 3 18 км мгла 9/4 570 м
[Cu med, cong Ac trans Ci sp]
+32.1 +25.9 70 +48 +53 опасность
перегрева
1008.4 1006.6
09 16.07 Ю 2 18 км мгла 9/3 570 м
[Cu med, cong Ac trans Ci sp]
+33.4 +25.4 63 +48 +50 опасность
перегрева
1005.8 1004.0
12 16.07 Ю 1 8000 м гроза без осадков 9/5 500 м
[Cb cap Ac trans Ci sp]
+25.7 +23.0 85 +34 +34 очень
душно
1008.2 1006.4 +33.5
15 16.07 штиль 0 10 км мгла {гроза, дождь} 9/3 750 м
[Sc Ac trans Ci sp]
+25.8 +23.7 88 +35 +35 очень
душно
1009.8 1008.0
18 16.07 штиль 0 10 км зарница {гроза, дождь} 9/4 500 м
[Cb cap Ac trans Ci sp]
+25.5 +23.8 90 +35 +35 очень
душно
1009.5 1007.7 0.0
21 16.07 штиль 0 10 км зарница 9/3 500 м
[Cb cap Ac trans Ci sp]
+25.0 +23.8 93 +34 +34 очень
душно
1008.0 1006.2
00 17.07 штиль 0 10 км мгла 9/1 720 м
[Sc diur, vesp Ac trans Cs]
+25.3 +23.7 91 +34 +35 очень
душно
1008.9 1007.1 +24.8 0.0
03 17.07 Ю 3 12 км мгла 9/1 600 м
[Cu hum Ac trans Cs]
+29.2 +24.0 74 +41 +47 опасность
перегрева
1009.1 1007.3

 

Местоположение метеостанции Куантане (Малайзия): широта 3.78 долгота 103.21 высота над уровнем моря 16 м.

В архиве по умолчанию представлена погода в Куантане за последнюю неделю. Архивные данные за месяц целиком и за предыдущие месяцы, начиная с января 2011 года, Вы можете получить, выбрав интересующий диапазон дат из раскрывающегося списка и нажав кнопку "Ввод!".


*Определитесь, кто Вы:
робот инопланетянин человек

Внимание! Время в таблицах - всемирное. Для получения местного времени необходимо прибавить поправку, которая равна 7 ч.

Смотрите также архив погоды в соседних городах и на ближайших метеорологических станциях:

Погода в Куала-Тренггану (Малайзия) (178 км)
Погода в Мерсинге (Малайзия) (198 км)
Погода в Куала-Лумпуре (Малайзия) (198 км)
Погода в Малакке (Малайзия) (199 км)
Погода в Куала-Лумпур аэропорту (Малайзия) (205 км)
Погода на Нагорье Кэмерон (Малайзия) (218 км)
Погода в Аэропорту Сеная (Малайзия) (245 км)
Погода в Ипохе (Малайзия) (250 км)
Погода в Сингапуре (Сингапур) (281 км)
Погода в Ситаване (Малайзия) (283 км)

Пояснения к столбцам:

Ветер - указаны скорость ветра в м/с - средняя за 10 мин, порывы в срок и между сроками (в фигурных скобках) и направление, откуда дует ветер: С - северный, СВ - северо-восточный, В - восточный, ЮВ - юго-восточный, Ю - южный, ЮЗ - юго-западный, З - западный, СЗ - северо-западный.
Видимость - горизонтальная дальность видимости в метрах или километрах. При видимости от 1 до 10 км при отсутствии осадков обычно наблюдается дымка, при ухудшении видимости до 1 км и менее - туман. В сухую погоду видимость может ухудшаться дымом, пылью или мглою.
Явления - указаны атмосферные явления, наблюдавшиеся в срок или в последний час перед сроком; фигурными скобками обозначены явления, наблюдавшиеся между сроками (за 1-3 часа до срока); квадратными скобками обозначены град или гололедные отложения с указанием их диаметра в мм.
Облачность - указаны через наклонную черту общая и нижняя облачность в баллах и высота нижней границы облаков в метрах; квадратными скобками обозначены формы облаков: Ci - перистые, Cs - перисто-слоистые, Cc - перисто-кучевые, Ac - высококучевые, As - высокослоистые, Sc - слоисто-кучевые, Ns - слоисто-дождевые, Cu - кучевые, Cb - кучево-дождевые. Подробнее классификацию облаков см. в Атласе облаков (PDF).
T - Температура воздуха - температура, измеренная на высоте 2 м над землей.
Td - Температура точки росы - температура, при понижении до которой содержащийся в воздухе водяной пар достигнет насыщения.
f - Относительная влажность воздуха - влажноcть воздуха, измеренная на высоте 2 м над землей.
Te - Эффективная температура - температура, которую ощущает одетый по сезону человек в тени. Характеристика душности погоды. При расчете учитывается влияние влажности воздуха и скорости ветра на теплоощущения человека.
Tes - Эффективная температура на солнце - температура, которую ощущает человек, с поправкой на солнечный нагрев. Характеристика знойности погоды. Зависит от высоты солнца над горизонтом, облачности и скорости ветра. Ночью, в пасмурную погоду, а также при ветре 12 м/с и более поправка равна нулю.
P - Атмосферное давление - приведенное к уровню моря атмосферное давление.
Po - Атмосферное давление - измеренное на уровне метеостанции атмосферное давление.
Tmin - Минимальная температура - минимум температуры воздуха на высоте 2 м над землей.
Tmax - Максимальная температура - максимум температуры воздуха на высоте 2 м над землей.
R - Количество осадков - Количество выпавших осадков за период времени, мм. При наведении курсора мыши на число - период времени, за который выпало указанное количество осадков.
R24 - Количество осадков - Количество выпавших осадков за 24 часа, мм.
S - Снежный покров - Высота снежного покрова, см. При наведении курсора мыши на число - состояние снежного покрова и степень покрытия местности в баллах.